Weather History for Rome Ciampino, Italy

Change the Weather History Date:

Sunday, February 5, 2012

  Actual Average Record
Temperature  
Mean Temperature 30 °F -  
Max Temperature 35 °F 56 °F 60 °F (2009)
Min Temperature 26 °F 38 °F 26 °F (2012)
Degree Days  
Heating Degree Days 34    
Moisture  
Dew Point 28 °F    
Average Humidity 90    
Maximum Humidity 100    
Minimum Humidity 86    
Precipitation  
Precipitation 0.00 in 0.12 in - ()
Sea Level Pressure  
Sea Level Pressure 30.02 in    
Wind  
Wind Speed 6 mph ()    
Max Wind Speed 9 mph    
Max Gust Speed -    
Visibility 3.6 miles    
Events Snow    
Averages and records for this station are not official NWS values.
T = Trace of Precipitation, MM = Missing Value Source: Averaged Metar Reports

Daily Weather History Graph

Daily Weather History Graph

Search for Another Location

Airport:

Trip Planner

Search our weather history database for the weather conditions in past years. The results will help you decide how hot, cold, wet, or windy it might be!

Date:

Astronomy

Feb. 05, 2012 Rise Set
Actual Time 7:18 AM CET 5:29 PM CET
Civil Twilight 6:49 AM CET 5:58 PM CET
Nautical Twilight 6:16 AM CET 6:31 PM CET
Astronomical Twilight 5:43 AM CET 7:04 PM CET
Moon 3:08 PM CET (2/5) 5:18 AM CET (2/5)
Length of Visible Light 11h 09m
Length of Day
10h 10m
Waxing Gibbous, 93% of the Moon is Illuminated
Feb 5
Waxing Gibbous
Feb 7
Full
Feb 14
Last Quarter
Feb 21
New
Mar 1
First Quarter

Hourly Weather History & Observations

Time (CET) Temp. Windchill Dew Point Humidity Pressure Visibility Wind Dir Wind Speed Gust Speed Precip Events Conditions
12:15 AM 26.6 °F 20.0 °F 26.6 °F 100% 30.09 in 0.7 mi NNE 5.8 mph - N/A   Scattered Clouds
1:15 AM 28.4 °F 21.2 °F 26.6 °F 93% 30.06 in 2.8 mi North 6.9 mph - N/A   Scattered Clouds
1:45 AM 28.4 °F 22.2 °F 26.6 °F 93% 30.06 in 2.8 mi NNE 5.8 mph - N/A   Scattered Clouds
2:15 AM 28.4 °F 22.2 °F 26.6 °F 93% 30.06 in 2.8 mi NNE 5.8 mph - N/A   Scattered Clouds
2:45 AM 28.4 °F 23.3 °F 24.8 °F 86% 30.06 in 2.8 mi NE 4.6 mph - N/A   Scattered Clouds
3:15 AM 28.4 °F 22.2 °F 26.6 °F 93% 30.06 in 2.8 mi NNE 5.8 mph - N/A   Mostly Cloudy
3:45 AM 28.4 °F 21.2 °F 26.6 °F 93% 30.06 in 1.9 mi NE 6.9 mph - N/A Snow Light Snow
4:15 AM 26.6 °F 20.0 °F 24.8 °F 93% 30.06 in 2.5 mi North 5.8 mph - N/A Snow Light Snow
4:45 AM 26.6 °F 19.1 °F 24.8 °F 93% 30.06 in 2.5 mi North 6.9 mph - N/A   Mostly Cloudy
5:15 AM 28.4 °F 21.2 °F 24.8 °F 86% 30.06 in 3.7 mi NNE 6.9 mph - N/A   Mostly Cloudy
5:45 AM 28.4 °F 21.2 °F 24.8 °F 86% 30.06 in 2.8 mi North 6.9 mph - N/A   Mostly Cloudy
6:15 AM 28.4 °F 21.2 °F 26.6 °F 93% 30.04 in 2.8 mi NNE 6.9 mph - N/A   Mostly Cloudy
6:45 AM 26.6 °F 19.1 °F 24.8 °F 93% 30.04 in 2.8 mi NNE 6.9 mph - N/A Snow Light Snow
7:15 AM 26.6 °F 19.1 °F 26.6 °F 100% 30.04 in 3.7 mi NNE 6.9 mph - N/A Snow Light Snow
7:45 AM 28.4 °F 19.7 °F 26.6 °F 93% 30.06 in 5.0 mi NE 9.2 mph - N/A   Scattered Clouds
8:15 AM 28.4 °F 21.2 °F 24.8 °F 86% 30.06 in 4.3 mi NNE 6.9 mph - N/A   Scattered Clouds
8:45 AM 28.4 °F 20.4 °F 24.8 °F 86% 30.04 in 4.3 mi NE 8.1 mph - N/A   Mostly Cloudy
9:15 AM 28.4 °F 22.2 °F 26.6 °F 93% 30.04 in 4.3 mi NNE 5.8 mph - N/A   Scattered Clouds
9:45 AM 28.4 °F 21.2 °F 24.8 °F 86% 30.04 in 6.2 mi NNE 6.9 mph - N/A   Scattered Clouds
10:15 AM 28.4 °F 23.3 °F 24.8 °F 86% 30.04 in 4.3 mi North 4.6 mph - N/A   Scattered Clouds
10:45 AM 30.2 °F 23.4 °F 26.6 °F 86% 30.06 in 4.3 mi NNE 6.9 mph - N/A   Scattered Clouds
11:15 AM 32.0 °F 25.6 °F 28.4 °F 87% 30.04 in 4.3 mi North 6.9 mph - N/A   Scattered Clouds
11:45 AM 32.0 °F 25.6 °F 30.2 °F 93% 30.04 in 4.3 mi North 6.9 mph - N/A   Scattered Clouds
12:15 PM 33.8 °F 27.7 °F 30.2 °F 87% 30.04 in 3.1 mi NNE 6.9 mph - N/A   Scattered Clouds
12:45 PM 33.8 °F 28.6 °F 30.2 °F 87% 30.04 in 3.1 mi NNE 5.8 mph - N/A   Scattered Clouds
1:15 PM 33.8 °F 27.7 °F 30.2 °F 87% 30.04 in 3.1 mi NE 6.9 mph - N/A   Mostly Cloudy
1:45 PM 33.8 °F 27.0 °F 30.2 °F 87% 30.01 in 3.1 mi NE 8.1 mph - N/A   Mostly Cloudy
2:15 PM 33.8 °F 27.7 °F 30.2 °F 87% 30.01 in 3.1 mi NNE 6.9 mph - N/A   Mostly Cloudy
2:45 PM 35.6 °F 29.9 °F 32.0 °F 87% 29.98 in 3.7 mi NNE 6.9 mph - N/A   Mostly Cloudy
3:15 PM 35.6 °F 29.2 °F 32.0 °F 87% 29.98 in 3.7 mi NE 8.1 mph - N/A   Mostly Cloudy
3:45 PM 35.6 °F 29.9 °F 32.0 °F 87% 29.98 in 4.3 mi NNE 6.9 mph - N/A   Mostly Cloudy
4:15 PM 35.6 °F 29.9 °F 32.0 °F 87% 29.98 in 4.3 mi NE 6.9 mph - N/A   Mostly Cloudy
4:45 PM 35.6 °F 30.7 °F 32.0 °F 87% 29.98 in 4.3 mi NNE 5.8 mph - N/A   Mostly Cloudy
5:15 PM 35.6 °F 32.8 °F 32.0 °F 87% 29.98 in 4.3 mi North 3.5 mph - N/A   Scattered Clouds
5:45 PM 33.8 °F 30.8 °F 30.2 °F 87% 29.95 in 4.3 mi NNE 3.5 mph - N/A   Mostly Cloudy
6:15 PM 33.8 °F - 30.2 °F 87% 29.98 in 4.3 mi NNE 2.3 mph - N/A   Mostly Cloudy
6:45 PM 33.8 °F - 30.2 °F 87% 29.98 in 4.3 mi NE 2.3 mph - N/A   Scattered Clouds
7:15 PM 33.8 °F 30.8 °F 30.2 °F 87% 29.98 in 4.3 mi NE 3.5 mph - N/A   Scattered Clouds
7:45 PM 32.0 °F - 32.0 °F 100% 29.98 in 4.3 mi NE 2.3 mph - N/A   Scattered Clouds
8:15 PM 32.0 °F 28.7 °F 30.2 °F 93% 29.98 in 4.3 mi NE 3.5 mph - N/A   Scattered Clouds
8:45 PM 32.0 °F 26.4 °F 30.2 °F 93% 29.98 in 4.3 mi NE 5.8 mph - N/A   Partly Cloudy
9:15 PM 32.0 °F 26.4 °F 30.2 °F 93% 29.98 in 4.3 mi NNE 5.8 mph - N/A   Partly Cloudy
9:45 PM 32.0 °F 27.5 °F 30.2 °F 93% 29.98 in 2.8 mi NNE 4.6 mph - N/A   Scattered Clouds
10:15 PM 32.0 °F 27.5 °F 32.0 °F 100% 29.98 in 2.8 mi NNE 4.6 mph - N/A   Scattered Clouds
10:45 PM 32.0 °F 28.7 °F 30.2 °F 93% 29.98 in 3.7 mi NNE 3.5 mph - N/A   Partly Cloudy
11:15 PM 28.4 °F - 26.6 °F 93% 29.95 in 3.7 mi NE 2.3 mph - N/A   Scattered Clouds
11:45 PM 30.2 °F 25.4 °F 28.4 °F 93% 29.95 in 4.3 mi NE 4.6 mph - N/A   Mostly Cloudy